Simultaneous Nadir Overpasses (SNOs) Predictions

Prediction of SNOs between LANDSAT-8 and METOP-B Satellite Orbit:

Table of predicted SNOs for the next 14.0 days since TLE Epoch: 3/23/2024
Index Date (LANDSAT-8) Time (LANDSAT-8) Lat,Lon (LANDSAT-8) SZA (LANDSAT-8 ) Date (METOP-B) Time (METOP-B) Lat,Lon (METOP-B) SZA (METOP-B ) Distance(km) Time Diff (sec)
1 03/23/2024 05:58:17 81.31, 133.02 82.19 03/23/2024 05:57:48 81.31, 132.90 82.16 2.18 29
2 03/23/2024 06:47:43 -81.33, -59.12 97.80 03/23/2024 06:48:27 -81.32, -59.05 97.78 1.20 44
3 03/26/2024 01:32:28 81.31,-160.55 81.11 03/26/2024 01:32:10 81.32,-160.35 81.12 3.29 18
4 03/26/2024 02:21:54 -81.33, 7.35 98.88 03/26/2024 02:22:50 -81.32, 7.32 98.86 0.81 56
5 03/28/2024 21:06:38 81.31, -94.11 80.03 03/28/2024 21:06:33 81.31, -94.13 80.03 0.41 5
6 03/28/2024 21:56:04 -81.33, 73.81 99.95 03/28/2024 21:57:12 -81.33, 73.93 99.91 2.11 68
7 03/31/2024 15:51:20 -81.31, 164.64 101.04 03/31/2024 15:50:14 -81.31, 164.74 101.05 1.75 66
8 03/31/2024 16:40:46 81.31, -27.68 78.96 03/31/2024 16:40:54 81.31, -27.67 78.97 0.23 8
9 04/03/2024 11:25:28 -81.31,-128.89 102.09 04/03/2024 11:24:36 -81.31,-128.92 102.12 0.65 52



Historial Predications of SNOs between LANDSAT-8 and METOP-B
